STARLINK-4398, 53466

Orbit data source: Space-Track

STARLINK-4398, 53466 is a payload satellite owned by SpaceX/Seattle (US) in SSO that was launched on Fri, 12 Aug 2022 UTC via an FALCON 9 launch vehicle from the Air Force Western Test Range (AFWTR). Payload-class satellites include a variety of spacecraft equipped with specific instruments for various scientific and technological missions. These include communications satellites like Starlink; space stations such as the ISS; scientific satellites like the Hubble; Earth observation satellites from companies like Planet Labs, Umbra, and HawkEye 360; GPS; miniature CubeSats for education and research; and military/defense satellites.

Loading next visibility...
Identifier
53466, 2022-099B
Orbit
SSO
Country
Flag of USUS
Related business
Manufacturer
SpaceX/Seattle
Mission
Partially operational Commercial Communications
Bus & Motor
STARLINK, Unknown motor
Mass
300 kg wet, ~275 kg dry
Launch date (UTC)
2022-08-12 (4 years ago)
Launch vehicle
FALCON 9
Launch site
Air Force Western Test Range (AFWTR)
Object type
Payload
Rocket body
Debris
Shape & HBR
Box + 1 Pan, 10.1 m
Radar Cross Section
13.562 m², Large (>1 m²)

Expand to show TLE details & history
Last TLE update: 6 hours ago

TLE from 6 hours ago
0 STARLINK-4398
1 53466U 22099B   26145.66668981  .00153592  00000-0  36056-2 0  9991
2 53466  97.6023 267.6428 0001258  93.3226 200.6564 15.41435780  5746
Epoch: 2026-05-25T16:00Z
TLE epoch observation values (Epoch: 2026-05-25T16:00:01.999Z)
Latitude
-65.10602°
Longitude
161.00328°
Altitude
467.494 km
Speed
7.631 km/s
True Right ascension
18h 57m 03s
True Declination
-64° 58' 08"
Sunlit
Object was in full shadow at epoch
Visualization orbit readout
Latitude
Unknown
Longitude
Unknown
Altitude
Unknown
Speed
Unknown
Apparent Right ascension
Unknown
Apparent Declination
Unknown
Sunlit
N/A
Visualization observer readout
Local Sidereal Time
06:59:47
Azimuth
Unknown
Elevation
Unknown
Doppler factor
Unknown
Orbital elements
Apogee altitude
439.674 km
Perigee altitude
437.959 km
Semi-major axis
6,816.954 km
Eccentricity
0.00013
Inclination
97.6023°
RAAN
267.6428°
Arg. of periapsis
93.3226°
True anomaly
200.65132°
Mean anomaly
200.6564°
Eccentric anomaly
200.65386°
Mean motion
3.85618 °/min
Orbital period
93.36 mins
BSTAR
0.0036056
Loading maneuver chart data...
Computing Atmospheric mass density...
Loading historical data...
Loading historical data...
Loading historical data...
Loading historical data...
Loading historical data...
Loading historical data...
Loading historical data...

Documentation

Showing up to 5 results
|